User: anonymous   Login
Location: Unspecified
(0.0000°N, 0.0000°E)
Time: 02:00:08
(UTC+01:00)
Language:

Ariane H10 - Orbit

View from above orbital plane
View from above orbital plane
View from above satellite
View from above satellite

Ground track
Ground track

The orbit data is extracted from the following two-line orbital elements,

1 19622U 88098B   17056.05106996  .00018749  00000-0  21533-2 0  9993
2 19622   3.6429 232.3177 6414278 115.4875 321.9168  3.46319417300454
Epoch (UTC): 25 February 2017 01:13:32
Eccentricity: 0.6414278
inclination: 3.6429°
perigee height: 239 km
apogee height: 23912 km
right ascension of ascending node: 232.3177°
argument of perigee: 115.4875°
revolutions per day: 3.46319417
mean anomaly at epoch: 321.9168°
orbit number at epoch: 30045

The dashed part of the orbit path shows where the satellite is in the earth's shadow,  

DLR